Marysville, OH

2:03 AM EST on December 04, 2016 (GMT -0500)
Marysville

Weather History for KMRT - October, 2012

Change the Weather History Date:

Monday, October 15, 2012

  Actual Average (KDLZ) Record (KDLZ)
Temperature  
Mean Temperature 50 °F -  
Max Temperature 58 °F 65 °F 84 °F (1953)
Min Temperature 41 °F 41 °F 22 °F (1939)
Degree Days  
Heating Degree Days 14    
Moisture  
Dew Point 44 °F    
Average Humidity 76    
Maximum Humidity 88    
Minimum Humidity 63    
Precipitation  
Precipitation 0.19 in - - ()
Sea Level Pressure  
Sea Level Pressure 29.85 in    
Wind  
Wind Speed 12 mph (WNW)    
Max Wind Speed 22 mph    
Max Gust Speed 30 mph    
Visibility 9 miles    
Events      
Averages and records for this station are not official NWS values.
T = Trace of Precipitation, MM = Missing Value Source: NWS Daily Summary

Daily Weather History Graph

Daily Weather History Graph

Search for Another Location

Airport or City:

Trip Planner

Search our weather history database for the weather conditions in past years. The results will help you decide how hot, cold, wet, or windy it might be!

Date:

Astronomy

Oct. 15, 2012 Rise Set
Actual Time 7:44 AM EDT 6:52 PM EDT
Civil Twilight 7:17 AM EDT 7:20 PM EDT
Nautical Twilight 6:45 AM EDT 7:51 PM EDT
Astronomical Twilight 6:14 AM EDT 8:23 PM EDT
Moon 7:53 AM EDT (10/15) 6:51 PM EDT (10/15)
Length of Visible Light 12h 03m
Length of Day
11h 08m
New Moon, 0% of the Moon is Illuminated
Oct 15
New Moon
Oct 21
First Quarter
Oct 29
Full
Nov 6
Last Quarter
Nov 13
New

Hourly Weather History & Observations

Time (EDT) Temp. Windchill Dew Point Humidity Pressure Visibility Wind Dir Wind Speed Gust Speed Precip Events Conditions
12:14 AM 58.6 °F - 54.7 °F 87% 29.72 in 10.0 mi West 12.7 mph 20.7 mph 0.01 in   Overcast
12:34 AM 57.4 °F - 51.4 °F 81% 29.73 in 10.0 mi West 15.0 mph 27.6 mph 0.02 in   Overcast
12:54 AM 56.3 °F - 50.2 °F 80% 29.74 in 10.0 mi West 18.4 mph 26.5 mph 0.04 in   Overcast
1:14 AM 55.4 °F - 49.1 °F 79% 29.74 in 10.0 mi West 21.9 mph 29.9 mph 0.01 in   Mostly Cloudy
1:35 AM 54.9 °F - 47.5 °F 76% 29.75 in 10.0 mi West 17.3 mph 29.9 mph 0.02 in   Overcast
1:54 AM 54.0 °F - 47.8 °F 80% 29.77 in 10.0 mi WNW 15.0 mph 26.5 mph 0.03 in   Overcast
2:14 AM 53.6 °F - 45.9 °F 75% 29.77 in 10.0 mi WNW 15.0 mph 23.0 mph 0.03 in   Overcast
2:35 AM 53.6 °F - 45.9 °F 75% 29.78 in 10.0 mi West 10.4 mph 19.6 mph 0.06 in   Overcast
2:54 AM 52.9 °F - 46.4 °F 79% 29.79 in 10.0 mi West 10.4 mph - 0.09 in   Overcast
3:14 AM 52.7 °F - 46.0 °F 78% 29.78 in 10.0 mi West 10.4 mph - 0.01 in   Overcast
3:35 AM 52.7 °F - 45.5 °F 76% 29.78 in 10.0 mi West 10.4 mph - 0.03 in   Overcast
3:54 AM 52.3 °F - 45.3 °F 77% 29.77 in 10.0 mi West 12.7 mph 17.3 mph 0.03 in   Overcast
4:14 AM 52.5 °F - 45.0 °F 75% 29.77 in 10.0 mi WNW 15.0 mph 18.4 mph N/A   Overcast
4:35 AM 52.7 °F - 44.2 °F 73% 29.77 in 10.0 mi West 13.8 mph 17.3 mph N/A   Overcast
4:54 AM 52.7 °F - 44.2 °F 73% 29.77 in 10.0 mi West 9.2 mph - N/A   Overcast
5:14 AM 52.3 °F - 45.5 °F 78% 29.78 in 10.0 mi West 9.2 mph - N/A   Overcast
5:35 AM 52.0 °F - 46.4 °F 81% 29.79 in 10.0 mi West 12.7 mph 17.3 mph N/A   Overcast
5:54 AM 51.8 °F - 46.8 °F 83% 29.79 in 7.0 mi WNW 5.8 mph - N/A   Overcast
6:14 AM 50.9 °F - 47.5 °F 88% 29.79 in 7.0 mi West 4.6 mph - N/A   Overcast
6:34 AM 51.3 °F - 46.4 °F 83% 29.80 in 10.0 mi West 9.2 mph - N/A   Overcast
6:54 AM 51.1 °F - 45.7 °F 82% 29.80 in 10.0 mi West 10.4 mph - N/A   Overcast
7:14 AM 50.4 °F - 45.5 °F 83% 29.80 in 10.0 mi West 9.2 mph - N/A   Overcast
7:54 AM 50.5 °F - 45.5 °F 83% 29.80 in 10.0 mi West 8.1 mph - N/A   Overcast
8:14 AM 50.7 °F - 45.5 °F 82% 29.80 in 10.0 mi West 4.6 mph - N/A   Overcast
8:34 AM 50.9 °F - 45.5 °F 82% 29.81 in 10.0 mi WSW 4.6 mph - N/A   Overcast
8:54 AM 50.9 °F - 45.5 °F 82% 29.81 in 10.0 mi WSW 4.6 mph - N/A   Overcast
9:14 AM 50.5 °F - 46.2 °F 85% 29.81 in 7.0 mi WSW 4.6 mph - N/A   Overcast
9:34 AM 50.9 °F - 46.6 °F 85% 29.81 in 7.0 mi WSW 4.6 mph - N/A   Overcast
9:54 AM 50.9 °F - 47.1 °F 87% 29.82 in 4.0 mi West 6.9 mph - N/A   Overcast
10:14 AM 50.2 °F - 46.4 °F 87% 29.83 in 3.0 mi West 9.2 mph - N/A   Overcast
10:34 AM 50.7 °F - 46.4 °F 85% 29.83 in 10.0 mi WNW 8.1 mph - N/A   Overcast
10:54 AM 50.9 °F - 45.0 °F 80% 29.84 in 10.0 mi West 12.7 mph 18.4 mph N/A   Overcast
11:14 AM 51.4 °F - 44.2 °F 76% 29.84 in 10.0 mi WNW 12.7 mph 18.4 mph N/A   Overcast
11:34 AM 51.8 °F - 44.1 °F 75% 29.85 in 10.0 mi WNW 12.7 mph 21.9 mph N/A   Overcast
11:54 AM 52.3 °F - 44.6 °F 75% 29.85 in 10.0 mi WNW 12.7 mph 18.4 mph N/A   Overcast
12:15 PM 53.1 °F - 44.2 °F 72% 29.85 in 10.0 mi NW 16.1 mph 23.0 mph N/A   Overcast
12:34 PM 51.8 °F - 43.7 °F 74% 29.86 in 10.0 mi WNW 12.7 mph 21.9 mph N/A   Overcast
12:54 PM 53.6 °F - 44.1 °F 70% 29.86 in 10.0 mi WNW 11.5 mph - N/A   Overcast
1:15 PM 51.6 °F - 43.7 °F 74% 29.86 in 7.0 mi NW 15.0 mph 19.6 mph N/A   Overcast
1:34 PM 50.5 °F - 44.8 °F 81% 29.87 in 3.0 mi WNW 16.1 mph - N/A   Overcast
1:54 PM 50.2 °F - 46.4 °F 87% 29.87 in 3.0 mi WNW 10.4 mph - N/A   Overcast
2:15 PM 51.1 °F - 44.8 °F 79% 29.87 in 10.0 mi WNW 12.7 mph 18.4 mph N/A   Overcast
2:34 PM 52.0 °F - 44.2 °F 75% 29.87 in 10.0 mi WNW 13.8 mph 19.6 mph N/A   Overcast
2:54 PM 52.9 °F - 44.4 °F 73% 29.87 in 10.0 mi WNW 10.4 mph 16.1 mph N/A   Overcast
3:14 PM 54.5 °F - 43.0 °F 65% 29.86 in 10.0 mi NW 16.1 mph - N/A   Overcast
3:34 PM 53.6 °F - 42.6 °F 66% 29.87 in 10.0 mi West 11.5 mph - N/A   Overcast
3:54 PM 52.9 °F - 41.9 °F 66% 29.87 in 10.0 mi WNW 15.0 mph 20.7 mph N/A   Overcast
4:14 PM 53.8 °F - 41.5 °F 63% 29.88 in 10.0 mi NW 16.1 mph - N/A   Overcast
4:34 PM 53.2 °F - 41.5 °F 65% 29.88 in 10.0 mi WNW 15.0 mph 21.9 mph N/A   Overcast
4:54 PM 53.6 °F - 41.4 °F 63% 29.89 in 10.0 mi WNW 15.0 mph - N/A   Overcast
5:14 PM 53.1 °F - 41.2 °F 64% 29.90 in 10.0 mi WNW 11.5 mph 19.6 mph N/A   Overcast
5:34 PM 53.1 °F - 41.5 °F 65% 29.90 in 10.0 mi WNW 10.4 mph - N/A   Overcast
5:54 PM 52.5 °F - 40.8 °F 64% 29.91 in 10.0 mi WNW 13.8 mph - N/A   Overcast
6:14 PM 51.8 °F - 40.8 °F 66% 29.91 in 10.0 mi WNW 11.5 mph 19.6 mph N/A   Overcast
6:34 PM 51.4 °F - 40.6 °F 67% 29.92 in 10.0 mi WNW 12.7 mph - N/A   Overcast
6:54 PM 50.9 °F - 41.0 °F 69% 29.91 in 10.0 mi WNW 6.9 mph - N/A   Overcast
7:14 PM 50.9 °F - 41.2 °F 69% 29.92 in 10.0 mi WNW 8.1 mph - N/A   Overcast
7:34 PM 50.5 °F - 41.0 °F 70% 29.94 in 10.0 mi WNW 10.4 mph 16.1 mph N/A   Overcast
7:54 PM 50.4 °F - 41.2 °F 71% 29.94 in 10.0 mi WNW 9.2 mph - N/A   Overcast
8:14 PM 50.2 °F - 41.0 °F 71% 29.95 in 10.0 mi WNW 4.6 mph - N/A   Overcast
8:34 PM 50.0 °F - 41.2 °F 72% 29.95 in 10.0 mi WNW 5.8 mph - N/A   Overcast
8:54 PM 49.6 °F - 41.2 °F 73% 29.95 in 10.0 mi WNW 5.8 mph - N/A   Overcast
9:14 PM 49.6 °F - 40.8 °F 72% 29.95 in 10.0 mi NW 4.6 mph - N/A   Overcast
9:34 PM 48.9 °F - 39.0 °F 69% 29.95 in 10.0 mi NW 3.5 mph - N/A   Overcast
9:54 PM 47.5 °F - 38.8 °F 72% 29.95 in 10.0 mi WNW 4.6 mph - N/A   Overcast
10:14 PM 48.2 °F - 39.4 °F 72% 29.96 in 10.0 mi WNW 5.8 mph - N/A   Overcast
10:34 PM 48.2 °F - 39.2 °F 71% 29.95 in 10.0 mi WNW 4.6 mph - N/A   Overcast
10:54 PM 47.7 °F - 39.2 °F 72% 29.96 in 10.0 mi WNW 5.8 mph - N/A   Overcast
11:14 PM 45.7 °F 42.7 °F 37.6 °F 73% 29.95 in 10.0 mi NW 5.8 mph - N/A   Scattered Clouds
11:34 PM 43.7 °F 42.1 °F 37.4 °F 78% 29.96 in 10.0 mi WNW 3.5 mph - N/A   Clear
11:55 PM 41.9 °F 38.2 °F 37.0 °F 83% 29.95 in 10.0 mi WNW 5.8 mph - N/A   Clear